Regional Weather Roundup
Issued by NWS

Home | Current Version | Previous Version | Text Only | Print | Product List | Glossary On
Versions: 1 2 3 4 5 6 7 8 9 10 11 12 13 14 15 16 17 18 19 20 21 22 23 24 25 26 27 28 29 30 31 32 33 34 35 36 37 38 39 40 41 42 43 44 45 46 47 48 49 50
000
ASUS44 KLIX 260311
RWRLA
LOUISIANA WEATHER ROUNDUP
NATIONAL WEATHER SERVICE NEW ORLEANS LA
1000 PM CDT SAT APR 25 2015

NOTE: "FAIR" INDICATES FEW OR NO CLOUDS BELOW 12,000 FEET WITH NO
      SIGNIFICANT WEATHER AND/OR OBSTRUCTIONS TO VISIBILITY.
      SKY/WX - SKY CONDITION AND SIGNIFICANT WEATHER.
      TMP - AIR TEMPERATURE.    DP   - DEWPOINT TEMPERATURE.
      RH  - RELATIVE HUMIDITY.  PRES - PRESSURE.
      HX  - HEAT INDEX.         WCI  - WIND CHILL INDEX.

*  THESE STATIONS ARE NOT NWS OR FAA STATIONS AND ARE NOT UNDER
   NWS QUALITY CONTROL.

LAZ040-048-061>063-065-066-069-260400-
SOUTHEAST LOUISIANA

CITY           SKY/WX    TMP DP  RH WIND       PRES   REMARKS
N.O. AUDUBON     N/A     71  70  97 MISG        N/A
N.O. INTL ARPT PTCLDY    71  65  81 SW7       29.74R
N.O. LAKEFRONT CLEAR     76  66  71 W8        29.75R
SLIDELL        CLEAR     68  67  96 CALM      29.74R
BATON ROUGE    CLEAR     71  67  87 SW8       29.74R
BOOTHVILLE     MOCLDY    75  70  84 S10       29.75R
BELLE CHASSE   MOCLDY    67  65  93 CALM      29.73R
BOGALUSA*        N/A     66  63  90 CALM      29.75R FOG
GALLIANO*      CLEAR     71  68  90 S5        29.76R
NEW ROADS*     FAIR      68  67  96 CALM      29.75R
GONZALES*      FAIR     N/A N/A N/A CALM      29.74R
HAMMOND*       CLEAR     66  63  88 CALM      29.76R
HOUMA*           N/A     67  67  99 CALM      29.75R FOG
PORT FOURCHON* CLEAR     77  72  83 S9G15     29.78S

$$

LAZ041-044-053-054-260400-
SOUTHWEST LOUISIANA

CITY           SKY/WX    TMP DP  RH WIND       PRES   REMARKS
LAKE CHARLES   CLEAR     72  69  90 CALM      29.74R
LAFAYETTE      CLEAR     70  68  93 SW5       29.74R
PATTERSON      CLEAR     70  66  88 CALM      29.76R
SALT POINT       N/A     72  70  93 CALM      29.73R
NEW IBERIA     CLEAR     70  68  93 SW3       29.75R
CHENAULT AIRPK CLEAR     72  70  94 SW6       29.75

$$

LAZ027-028-260400-
CENTRAL LOUISIANA

CITY           SKY/WX    TMP DP  RH WIND       PRES   REMARKS
FORT POLK      NOT AVBL
ALEXANDRIA INT CLEAR     70  67  90 S3        29.70R
ALEXANDRIA     CLEAR     69  66  90 SW3       29.72R

$$

LAZ001-002-260400-
NORTHWEST LOUISIANA

CITY           SKY/WX    TMP DP  RH WIND       PRES   REMARKS
SHREVEPORT     CLEAR     70  57  63 W7        29.68R
BARKSDALE AFB  NOT AVBL
DTN SHREVEPORT CLEAR     68  55  63 SW3       29.68R

$$

LAZ014-016-260400-
NORTHEAST LOUISIANA

CITY           SKY/WX    TMP DP  RH WIND       PRES   REMARKS
MONROE         PTCLDY    74  66  76 SW8       29.68R
TALLULAH       CLEAR     72  66  81 SW6       29.70R

$$



USA.gov is the U.S. government's official web portal to all federal, state and local government web resources and services.